TITAN 3C TRANSTAGE R/B, 2770

Orbit data source: Space-Track

TITAN 3C TRANSTAGE R/B, 2770 is space debris in HEO originally from a launch on Fri, 28 Apr 1967 UTC launched from the Air Force Eastern Test Range (AFETR). Debris objects in space refer to the collection of defunct objects orbiting the Earth. Examples of debris include non-operational satellites, rocket bodies, and fragments generated from explosions, collisions, or faulty payload assembly.

Loading next visibility...
Identifier
2770, 1967-040F
Orbit
HEO
Last TLE update
in 1 day
Origin
Manufacturer
Martin Marietta
Mission
Spacecraft
Bus & Motor
TRANSTAGE, Unknown motor
Mass
3,103 kg wet, 3,103 kg dry
Launch date (UTC)
1967-04-28 (58 years ago)
Launch vehicle
Unknown
Launch site
Air Force Eastern Test Range (AFETR)
Object type
Payload
Rocket body
Debris
Shape & HBR
Cyl + 2 Nozzle, 4.6 m
Radar Cross Section
14.974 m², Large (>1 m²)

Expand to show TLE details & history

TLE from in 1 day
0 TITAN 3C TRANSTAGE R/B
1 02770U 67040F   25175.00327593 -.00000088  00000-0  00000-0 0  9999
2 02770  17.9737 217.4990 7818433 335.8236   0.7316  0.50941553 21471
Epoch: 2025-06-24T00:04Z
TLE epoch observation values (Epoch: 2025-06-24T00:04:43.04Z)
Latitude
-6.72936°
Longitude
-77.22245°
Altitude
8,310.068 km
Speed
6.947 km/s
True Right ascension
13h 05m 26s
True Declination
-6° 42' 36"
Sunlit
Object was in daylight at epoch
Visualization orbit readout
Latitude
11.16385°
Longitude
86.26638°
Altitude
98,728.163 km
Speed
1.251 km/s
Apparent Right ascension
23h 52m 49s
Apparent Declination
9° 19' 03"
Sunlit
Object is in daylight
Visualization observer readout
Local Sidereal Time
02:21:28
Azimuth
237.453° WSW
Elevation
44.997°
Doppler factor
1
Orbital elements
Apogee altitude
111,628.27 km
Perigee altitude
8,069.76 km
Semi-major axis
66,227.152 km
Eccentricity
0.78184
Inclination
17.9737°
RAAN
217.499°
Arg. of periapsis
335.8236°
True anomaly
Unknown
Mean anomaly
0.7316°
Eccentric anomaly
Unknown
Mean motion
0.12735 °/min
Orbital period
2,826.92 mins
BSTAR
0
Loading maneuver chart data...
Loading SW <> Apogee altitude chart data...
Loading historical data...
Loading historical data...
Loading historical data...
Loading historical data...
Loading historical data...
Loading historical data...
Loading historical data...

TITAN 3C TRANSTAGE R/B Visibility forecast

Observer location: undefined°, undefined°

Span
Click to sort rows by Start time (UTC) header in descending order
Start Az.
Max El. time (UTC)
Max El. Az.
Max El.
End time (UTC)
End Az.
203 mins2025-06-22 15:17:42.495Z237.446° WSW2025-06-22 15:17:42.495Z237.446° WSW35.261°2025-06-22 18:40:42.495Z271.47° WNW
324 mins2025-06-23 09:53:42.495Z98.111° ESE2025-06-23 15:17:42.495Z172.048° S35.551°2025-06-23 15:17:42.495Z172.048° S
|